Wind_Speed
6 6 6 9 11 9 12 15 13 11 12 11 10 9 9 10 8 8 10 10 8 9 14 13 17 15 15 16 15 16 19 19 15 16 16 16 15 13 13 13 12 13 13 12 11 12 11 8 10
7 7 5 8 8 11 13 12 15 13 10 11 10 8 7 8 9 9 8 9 5 9 13 13 13 14 13 14 17 20 16 14 21 18 20 17 15 16 17 19 18 18 15 14 12 11 11 12 11
7 8 5 8 5 6 13 13 14 17 13 10 10 9 9 8 9 8 9 7 3 7 11 10 12 13 15 14 20 15 13 15 14 25 23 20 21 20 20 21 18 17 15 13 11 12 13 12 10
7 4 4 6 6 4 5 11 15 17 14 10 11 10 10 9 9 7 9 6 4 8 9 10 13 13 13 12 17 16 18 26 23 17 22 23 21 21 20 18 17 15 12 11 12 13 14 12 10
9 7 6 1 5 6 10 12 12 14 14 13 12 11 11 10 10 8 9 5 3 10 11 11 14 14 14 16 19 13 15 15 18 21 21 21 20 20 20 17 15 13 13 14 15 15 14 12 10
12 7 3 1 5 6 6 10 10 11 11 11 11 13 14 10 8 9 9 7 5 11 13 13 15 17 15 17 16 12 16 20 23 28 27 23 21 18 16 14 14 13 14 15 16 15 14 13 13
3 3 3 3 6 6 9 8 9 11 8 9 9 13 15 10 10 10 10 8 9 11 13 15 15 19 19 19 19 19 22 30 36 27 24 21 19 17 15 15 13 12 13 14 16 14 14 14 17
5 6 4 3 8 11 11 11 9 7 9 13 13 11 16 9 11 13 13 11 11 12 13 16 16 17 19 20 19 18 17 20 29 30 22 20 17 16 15 14 14 15 15 15 14 14 14 15 17
5 7 5 1 5 4 7 6 8 7 10 14 13 12 14 11 12 13 15 15 12 14 13 16 14 16 16 16 17 20 21 20 20 26 20 18 16 16 15 15 15 16 16 15 13 14 14 16 16
4 9 8 5 3 3 5 7 11 7 10 13 15 13 12 11 12 12 12 15 14 13 15 14 14 14 14 15 17 18 20 20 18 19 17 15 15 16 16 14 15 16 15 14 13 13 14 16 15
3 13 11 5 8 9 9 3 5 5 8 11 14 12 12 12 11 11 14 14 14 14 16 14 14 13 11 11 18 18 19 17 15 16 17 15 15 14 15 14 13 15 14 14 13 13 14 14 13
7 12 9 13 17 12 12 7 9 3 6 11 9 12 12 13 11 9 11 15 14 15 15 15 15 13 14 15 22 18 17 15 14 15 15 15 15 14 14 13 13 13 13 14 14 12 14 14 13
10 7 14 13 19 11 10 9 6 7 7 9 6 10 13 13 12 13 11 13 15 15 14 13 15 14 16 20 22 16 15 15 14 14 15 15 16 14 13 12 12 13 13 13 11 10 9 8 9
8 5 9 6 10 19 15 9 6 9 8 11 7 7 12 11 12 14 13 13 14 15 15 14 15 15 16 18 16 13 14 14 15 15 15 16 15 14 13 11 10 10 12 11 11 11 10 9 9
13 9 10 12 20 15 12 11 8 5 8 10 9 3 10 12 12 14 15 12 15 15 15 14 16 15 14 17 15 12 12 14 15 12 15 15 17 17 15 13 11 9 9 10 9 7 10 10 8
15 11 13 11 13 19 17 12 9 8 16 5 5 2 5 10 10 14 16 14 15 14 15 14 14 15 14 16 14 10 12 14 16 14 16 15 18 18 16 13 10 9 10 9 7 9 12 12 8
18 14 12 12 16 20 20 20 11 10 9 13 5 7 6 10 12 14 14 16 12 14 15 15 14 13 12 13 14 12 11 15 14 13 13 15 15 16 15 13 12 9 8 9 8 9 11 11 8
22 22 20 22 22 30 20 17 16 14 11 8 6 11 9 10 13 14 15 16 13 12 13 14 14 12 13 11 13 13 10 13 13 11 11 13 13 11 13 10 10 9 8 9 9 10 8 8 6
26 29 27 23 28 32 19 20 19 17 16 7 13 11 13 11 10 13 15 15 15 12 12 15 16 16 14 12 11 12 11 12 12 9 10 12 11 9 10 9 10 10 11 12 11 11 8 5 2
29 28 26 20 14 7 16 22 23 16 16 13 7 10 15 13 13 15 15 14 14 13 12 13 13 15 16 15 11 8 11 10 10 9 9 10 11 9 9 11 8 9 12 15 12 10 8 6 4
33 20 21 23 29 17 10 8 23 21 22 12 10 17 15 18 17 17 18 16 14 13 11 12 12 13 16 15 14 12 11 11 10 9 7 9 11 10 10 8 10 10 11 12 12 10 7 5 4
29 17 25 16 18 17 21 13 13 17 15 19 12 25 20 19 16 16 17 20 16 14 14 13 13 13 14 16 16 13 11 11 10 12 13 12 10 11 12 10 8 10 11 11 9 9 8 5 2
27 28 17 22 17 6 7 11 12 4 8 5 20 17 21 22 23 18 18 18 20 17 15 13 14 13 13 14 16 16 14 13 11 10 13 15 12 11 10 10 10 8 7 8 8 7 6 5 5
25 32 16 17 14 9 12 8 11 10 11 11 14 20 19 22 20 19 16 18 19 20 17 15 15 14 13 15 15 16 15 14 14 12 12 14 12 12 12 10 7 7 7 5 5 4 4 3 1
25 29 18 25 21 14 11 13 8 14 8 13 18 21 18 18 21 20 19 19 20 21 21 18 16 15 14 15 16 16 16 15 14 15 14 12 10 12 10 11 9 8 8 6 6 5 4 2 2
31 29 26 13 23 24 15 13 7 5 6 10 17 24 21 20 21 19 19 19 21 20 18 20 18 17 15 14 14 15 17 17 17 18 16 14 14 12 9 9 10 9 8 8 8 7 4 2 2
21 21 16 18 16 15 17 12 9 10 6 8 13 18 26 24 20 21 21 22 20 20 20 18 19 18 17 16 15 16 17 18 18 17 17 15 13 11 11 11 10 7 6 6 7 6 6 3 2
17 16 10 20 17 19 16 14 16 12 12 8 10 10 25 26 26 28 24 23 23 19 19 18 19 21 20 18 18 17 16 16 16 16 15 15 15 15 13 12 10 10 9 7 5 4 3 3 3
21 20 19 24 11 21 16 15 19 18 15 11 6 8 6 12 19 25 31 29 25 25 21 20 19 20 21 22 21 21 20 19 18 18 16 15 14 15 14 13 12 12 10 9 7 6 6 6 6
20 15 21 22 16 3 10 9 12 15 9 5 5 7 9 11 6 7 15 21 25 23 28 28 24 23 23 22 23 23 23 22 22 20 18 18 18 17 16 14 14 13 13 12 11 11 10 10 9
Wind_Direction
16 29 46 54 71 86 88 94 75 83 85 70 67 74 71 118 88 82 96 78 88 98 86 70 74 76 83 91 98 135 134 140 150 158 157 151 146 151 153 154 149 143 130 124 122 123 113 125 121
19 11 28 51 83 109 99 84 88 84 82 88 77 84 85 91 90 87 88 88 87 95 82 83 83 80 84 100 100 130 130 131 159 174 159 149 146 143 145 141 141 138 137 135 141 133 130 129 118
7 10 20 36 50 91 113 85 93 93 84 81 74 71 75 81 83 90 87 91 116 97 93 94 90 88 82 100 122 128 154 172 174 158 139 138 141 137 136 140 143 145 147 145 135 127 131 115 101
329 350 2 53 71 81 130 61 58 68 73 75 76 80 79 69 75 83 93 96 133 100 88 84 86 84 86 111 125 118 151 151 151 149 146 140 136 136 139 146 146 141 136 131 132 126 106 98 104
322 313 335 294 92 130 98 74 60 60 62 60 73 77 72 82 69 78 95 109 140 104 94 89 88 77 86 116 140 157 174 170 164 151 143 137 140 145 143 140 134 129 132 135 121 112 109 107 105
312 298 344 72 147 148 107 69 58 63 58 71 69 87 71 74 45 72 94 121 139 108 101 89 84 78 78 99 119 132 173 178 166 147 138 140 141 139 133 134 134 137 135 126 119 111 114 107 108
3 116 128 118 140 158 127 67 65 61 61 74 70 88 82 73 62 83 97 113 119 110 104 100 87 79 83 93 111 138 167 170 146 131 137 141 140 137 135 134 131 126 123 121 113 112 106 109 113
196 167 175 157 168 155 122 71 73 77 87 72 67 76 90 82 84 98 104 110 118 116 110 99 96 90 86 98 112 120 126 128 140 133 135 134 131 132 129 126 125 118 116 114 114 113 112 118 121
150 166 169 214 178 146 100 71 91 98 78 71 72 67 89 97 93 103 113 119 126 124 121 116 110 99 98 92 99 102 115 109 133 127 126 126 128 124 130 129 122 116 116 121 123 117 118 125 124
73 193 146 136 130 100 106 96 130 93 84 81 77 88 81 83 89 98 102 123 129 124 120 116 111 109 114 109 102 95 93 101 120 121 118 117 121 126 128 130 124 123 125 129 123 124 128 132 127
153 154 183 189 169 143 139 147 162 98 84 81 86 91 83 84 84 100 104 118 118 125 122 120 114 112 118 109 124 114 104 104 105 110 119 124 124 131 131 130 128 129 134 133 134 131 135 137 131
106 176 188 214 156 150 162 142 169 164 80 86 90 88 95 98 86 87 100 113 106 128 129 129 119 114 112 100 128 123 114 115 113 122 126 123 125 131 133 137 138 141 142 149 146 141 148 145 141
161 185 198 219 225 203 164 145 149 142 116 88 93 88 107 104 98 92 86 99 109 132 126 128 121 120 120 109 136 117 121 117 110 106 123 120 125 133 140 140 147 157 152 151 145 140 145 136 95
173 241 253 222 190 188 173 165 182 128 120 97 83 90 96 113 109 100 95 96 104 127 129 134 127 130 130 126 125 124 119 112 110 115 113 127 124 131 137 138 146 149 148 145 146 135 137 112 87
203 228 257 240 203 185 196 183 182 215 167 103 93 56 99 108 119 112 111 106 111 121 132 134 127 134 137 126 128 139 125 109 110 120 121 126 127 127 126 129 133 138 151 149 143 123 110 96 83
214 219 243 217 201 205 192 170 161 182 188 178 121 113 112 116 123 121 121 115 116 123 126 128 132 139 136 132 133 130 134 118 114 117 132 134 129 128 129 135 135 140 159 155 140 105 96 90 80
215 210 217 214 188 198 201 195 185 166 172 210 202 172 171 136 138 132 129 117 119 123 132 138 136 136 128 135 130 137 127 119 118 123 125 141 135 138 136 138 143 145 157 149 137 115 109 106 112
217 217 213 219 209 216 210 207 187 171 201 168 197 179 185 143 145 143 132 129 128 127 136 142 140 136 134 141 133 140 130 122 121 132 139 145 147 145 136 139 134 143 145 145 134 124 128 126 131
221 227 226 235 233 214 213 195 204 219 206 210 199 193 177 159 145 148 132 143 137 138 142 142 151 152 149 153 153 147 137 134 137 144 152 156 157 146 132 139 142 143 145 142 142 138 139 154 175
229 232 229 229 263 333 195 196 191 224 206 199 193 215 177 163 174 152 145 144 149 144 149 139 141 158 165 168 175 164 146 143 152 156 164 161 158 140 140 143 140 145 138 139 144 140 153 168 216
233 238 241 247 262 274 270 246 206 203 212 216 256 203 188 175 177 164 149 150 156 159 151 148 151 155 170 172 180 188 165 170 174 160 165 158 152 151 138 150 151 147 154 152 151 152 155 173 220
233 242 244 269 264 297 290 314 304 183 226 220 212 191 187 178 183 170 156 156 158 165 162 159 167 162 159 162 175 188 184 184 179 165 169 174 166 156 148 159 155 154 163 166 163 160 166 163 222
225 232 239 255 250 272 297 301 309 220 314 257 228 204 187 186 179 176 164 161 165 161 168 164 171 170 165 168 169 179 185 180 181 178 176 180 179 167 168 163 153 155 156 179 176 175 180 164 183
228 222 234 218 236 261 257 279 266 289 271 239 205 189 185 197 189 183 173 166 170 170 167 174 177 178 178 180 181 182 185 189 183 186 185 191 183 176 182 174 152 141 148 172 166 175 209 198 210
230 228 248 247 241 257 268 260 265 278 286 223 196 203 190 196 189 182 181 181 180 177 172 174 180 182 184 186 184 182 186 190 179 177 186 188 187 187 187 172 172 172 169 163 142 158 195 231 253
235 242 245 265 234 240 249 235 239 264 300 218 205 206 183 193 207 196 195 197 190 182 178 176 184 185 195 193 193 191 187 190 189 179 180 179 178 176 184 180 186 186 176 179 173 175 189 236 272
253 242 229 246 215 215 222 199 200 247 287 194 198 203 209 191 203 198 207 205 203 194 185 192 188 193 194 204 208 200 199 200 196 188 181 184 179 178 179 182 185 190 191 192 193 197 191 204 240
228 224 228 232 215 185 181 176 180 170 130 117 141 160 207 200 198 211 212 203 207 212 206 197 202 199 204 205 214 213 211 208 208 203 196 194 193 192 192 194 195 201 200 202 212 224 240 246 260
220 222 228 237 181 154 143 148 174 160 153 153 178 196 202 177 188 209 214 214 211 218 211 217 213 214 207 209 212 213 216 217 222 216 210 207 210 209 209 208 206 209 214 215 215 221 236 246 252
217 221 238 249 259 214 116 117 159 157 141 187 208 185 210 232 255 218 198 213 224 232 230 225 227 219 221 216 217 221 220 218 222 227 224 222 222 225 221 226 229 226 224 234 238 233 232 231 238
Height
5874 5875 5878 5880 5882 5879 5878 5877 5876 5877 5876 5876 5876 5875 5874 5872 5874 5876 5873 5874 5874 5875 5874 5872 5871 5871 5872 5873 5873 5875 5877 5880 5883 5885 5888 5891 5893 5896 5897 5898 5899 5901 5901 5902 5902 5903 5903 5903 5906
5876 5876 5878 5881 5882 5880 5879 5879 5877 5878 5878 5878 5877 5876 5876 5875 5875 5875 5875 5875 5876 5876 5875 5874 5874 5874 5874 5874 5874 5875 5877 5881 5883 5886 5888 5891 5893 5895 5896 5897 5899 5899 5902 5903 5903 5904 5905 5907 5908
5877 5876 5879 5881 5881 5881 5880 5880 5879 5878 5880 5880 5878 5877 5877 5877 5875 5875 5875 5876 5877 5876 5876 5876 5876 5875 5876 5876 5875 5877 5879 5881 5884 5886 5887 5891 5894 5895 5897 5898 5900 5901 5903 5904 5905 5907 5909 5910 5912
5876 5877 5880 5883 5882 5880 5880 5878 5877 5878 5881 5881 5880 5880 5879 5878 5877 5877 5876 5877 5878 5877 5876 5876 5877 5876 5877 5877 5878 5879 5880 5882 5884 5886 5890 5893 5895 5897 5899 5902 5902 5904 5906 5907 5909 5911 5912 5914 5915
5877 5877 5880 5882 5883 5881 5881 5880 5879 5879 5881 5882 5881 5881 5880 5880 5879 5879 5878 5879 5879 5878 5877 5878 5878 5878 5879 5879 5880 5879 5882 5885 5888 5890 5892 5896 5898 5900 5902 5903 5904 5906 5910 5912 5912 5914 5915 5916 5917
5876 5878 5880 5882 5882 5882 5881 5881 5880 5880 5882 5884 5882 5881 5882 5882 5881 5880 5880 5881 5881 5880 5879 5879 5881 5881 5879 5880 5881 5882 5881 5885 5888 5890 5894 5897 5900 5902 5904 5906 5908 5911 5913 5915 5915 5917 5918 5918 5918
5875 5877 5880 5882 5883 5883 5883 5883 5882 5881 5884 5885 5884 5882 5883 5884 5884 5883 5882 5883 5883 5882 5881 5881 5882 5883 5882 5883 5884 5886 5884 5884 5886 5893 5896 5900 5901 5905 5908 5910 5912 5915 5916 5918 5920 5919 5920 5919 5917
5876 5878 5881 5882 5884 5885 5884 5883 5882 5884 5886 5886 5885 5885 5883 5886 5886 5886 5884 5885 5885 5884 5884 5885 5886 5887 5886 5887 5887 5889 5890 5889 5891 5893 5899 5902 5906 5909 5911 5913 5915 5917 5918 5921 5921 5921 5921 5921 5920
5877 5879 5880 5884 5885 5885 5885 5885 5885 5887 5885 5884 5886 5887 5886 5888 5887 5887 5886 5886 5887 5887 5888 5890 5890 5890 5891 5891 5891 5892 5893 5895 5897 5899 5904 5907 5910 5912 5914 5915 5917 5918 5920 5923 5923 5924 5924 5924 5922
5877 5880 5882 5884 5885 5885 5886 5886 5888 5889 5886 5886 5886 5888 5888 5890 5889 5890 5889 5889 5889 5889 5891 5893 5893 5893 5894 5894 5895 5896 5897 5898 5900 5903 5907 5911 5913 5915 5915 5916 5918 5921 5923 5924 5926 5927 5927 5925 5925
5878 5879 5882 5884 5886 5887 5888 5889 5889 5890 5887 5887 5888 5889 5891 5892 5891 5891 5890 5891 5892 5892 5893 5894 5895 5896 5895 5897 5899 5900 5902 5903 5905 5907 5910 5913 5915 5915 5916 5917 5920 5924 5925 5927 5928 5928 5929 5927 5929
5878 5879 5882 5883 5884 5888 5889 5890 5891 5890 5889 5889 5889 5890 5893 5894 5894 5894 5892 5892 5894 5895 5896 5896 5897 5899 5899 5899 5900 5902 5905 5907 5909 5912 5914 5914 5915 5917 5918 5919 5922 5927 5927 5928 5928 5929 5930 5932 5932
5877 5879 5880 5881 5882 5886 5889 5889 5890 5889 5889 5890 5891 5891 5893 5895 5896 5896 5895 5895 5896 5897 5898 5898 5899 5900 5902 5902 5904 5906 5907 5909 5912 5914 5915 5915 5916 5919 5920 5921 5924 5927 5929 5931 5932 5933 5935 5936 5938
5879 5880 5881 5882 5883 5886 5888 5889 5888 5888 5891 5891 5893 5893 5893 5896 5896 5896 5897 5898 5898 5899 5900 5901 5902 5903 5904 5906 5907 5908 5910 5912 5914 5915 5916 5918 5919 5920 5922 5924 5926 5929 5932 5933 5934 5937 5938 5940 5943
5876 5877 5879 5880 5882 5884 5886 5889 5888 5890 5891 5891 5894 5895 5894 5896 5897 5897 5898 5899 5900 5901 5902 5903 5904 5905 5905 5908 5909 5911 5913 5914 5916 5918 5920 5920 5921 5922 5923 5925 5928 5931 5933 5934 5936 5938 5942 5944 5946
5876 5876 5878 5879 5880 5881 5884 5887 5890 5890 5891 5891 5894 5896 5895 5897 5898 5898 5899 5900 5902 5903 5904 5905 5906 5907 5908 5910 5911 5913 5916 5917 5918 5920 5921 5923 5923 5923 5925 5927 5929 5931 5933 5935 5938 5941 5945 5947 5948
5872 5873 5875 5877 5878 5880 5882 5884 5887 5889 5891 5892 5893 5895 5896 5896 5899 5898 5900 5901 5903 5904 5906 5907 5908 5909 5911 5913 5914 5916 5919 5920 5921 5921 5923 5924 5925 5925 5927 5929 5932 5933 5935 5938 5939 5943 5945 5947 5949
5868 5869 5870 5868 5875 5874 5872 5878 5883 5888 5890 5890 5892 5894 5896 5896 5899 5900 5899 5901 5904 5906 5907 5909 5909 5911 5913 5915 5917 5918 5920 5922 5923 5923 5925 5926 5927 5928 5930 5932 5933 5935 5936 5939 5942 5945 5946 5949 5950
5864 5864 5867 5868 5867 5870 5869 5878 5882 5883 5887 5889 5891 5894 5895 5897 5900 5900 5900 5902 5905 5908 5909 5910 5911 5912 5915 5916 5917 5919 5922 5923 5924 5925 5926 5928 5929 5931 5933 5934 5936 5937 5939 5941 5943 5945 5947 5950 5950
5858 5861 5866 5867 5865 5866 5867 5872 5875 5881 5883 5888 5890 5890 5892 5894 5897 5899 5901 5902 5905 5908 5910 5910 5911 5912 5914 5917 5918 5920 5923 5925 5926 5926 5928 5928 5929 5932 5935 5936 5937 5938 5939 5941 5944 5946 5948 5949 5950
5853 5859 5862 5867 5864 5864 5866 5869 5872 5876 5882 5885 5886 5887 5890 5892 5895 5898 5900 5902 5905 5908 5910 5912 5912 5913 5915 5917 5919 5921 5924 5926 5927 5928 5928 5929 5930 5933 5935 5937 5938 5940 5941 5942 5944 5946 5948 5948 5950
5854 5859 5860 5864 5866 5865 5864 5867 5867 5866 5878 5882 5883 5886 5887 5891 5895 5897 5899 5901 5905 5909 5911 5913 5914 5915 5916 5916 5919 5920 5923 5926 5928 5929 5930 5931 5933 5934 5935 5938 5940 5941 5942 5943 5944 5946 5947 5949 5949
5852 5853 5859 5863 5863 5865 5866 5870 5871 5873 5875 5875 5879 5883 5886 5889 5893 5896 5897 5901 5904 5907 5911 5914 5916 5916 5916 5918 5919 5921 5922 5923 5927 5929 5931 5932 5934 5935 5937 5939 5940 5942 5943 5944 5945 5945 5946 5948 5948
5849 5852 5856 5859 5861 5863 5865 5870 5870 5871 5873 5873 5876 5881 5883 5887 5891 5894 5897 5900 5904 5906 5908 5913 5917 5917 5918 5918 5920 5921 5923 5925 5926 5928 5931 5932 5933 5935 5938 5940 5941 5943 5944 5945 5946 5946 5946 5947 5947
5845 5850 5854 5857 5860 5862 5864 5866 5869 5868 5870 5871 5874 5878 5882 5885 5889 5892 5895 5899 5902 5904 5906 5910 5914 5917 5918 5920 5920 5922 5923 5925 5926 5928 5929 5932 5935 5937 5938 5939 5941 5943 5944 5945 5946 5946 5946 5946 5947
5847 5849 5852 5855 5856 5860 5861 5864 5865 5866 5867 5870 5871 5875 5879 5883 5888 5891 5894 5897 5901 5903 5906 5908 5913 5916 5918 5921 5922 5923 5923 5924 5926 5927 5929 5930 5932 5934 5937 5939 5940 5942 5943 5944 5945 5946 5946 5946 5947
5843 5846 5848 5853 5853 5857 5860 5862 5863 5864 5866 5868 5870 5873 5876 5881 5885 5890 5893 5896 5900 5902 5904 5907 5910 5914 5917 5919 5922 5924 5925 5926 5925 5926 5927 5929 5931 5932 5934 5936 5938 5941 5942 5944 5945 5946 5947 5946 5945
5839 5844 5846 5849 5852 5854 5858 5859 5862 5864 5866 5867 5870 5872 5875 5879 5882 5886 5890 5893 5896 5898 5901 5905 5908 5911 5915 5918 5920 5922 5924 5926 5927 5927 5926 5927 5929 5930 5932 5934 5936 5938 5940 5941 5943 5945 5945 5945 5944
5838 5841 5843 5846 5851 5851 5855 5858 5859 5862 5865 5868 5870 5871 5873 5874 5877 5881 5886 5889 5892 5895 5897 5901 5906 5910 5911 5914 5918 5920 5922 5923 5925 5927 5927 5927 5928 5930 5932 5931 5933 5935 5938 5940 5940 5941 5943 5943 5944
5835 5838 5841 5842 5849 5852 5855 5859 5859 5862 5865 5867 5869 5871 5872 5874 5874 5876 5880 5884 5888 5891 5893 5896 5901 5905 5909 5911 5914 5917 5920 5921 5922 5924 5925 5925 5927 5929 5929 5930 5931 5933 5934 5937 5938 5938 5940 5941 5942